Regional Weather Roundup
Issued by NWS

Home | Current Version | Previous Version | Graphics & Text | Print | Product List | Glossary On
Versions: 1 2 3 4 5 6 7 8 9 10 11 12 13 14 15 16 17 18 19 20 21 22 23 24 25 26 27 28 29 30 31 32 33 34 35 36 37 38 39 40 41 42 43 44 45 46 47 48 49 50
000
ASUS43 KIND 200809
RWRIN

WEATHER ROUNDUP FOR INDIANA
NATIONAL WEATHER SERVICE INDIANAPOLIS IN
300 AM EST SAT DEC 20 2014

NOTE: "FAIR" INDICATES FEW OR NO CLOUDS BELOW 12,000 FEET WITH NO
SIGNIFICANT WEATHER AND/OR OBSTRUCTIONS TO VISIBILITY.

* - STATION DOES NOT REPORT WEATHER SUCH AS PRECIPITATION OR FOG.

+ - STATION NOT QUALITY CONTROLLED BY THE NATIONAL WEATHER SERVICE.
    USE DATA WITH CAUTION...ESPECIALLY DEWPOINT AND RELATIVE
    HUMIDITY OBSERVATIONS.

INZ001>003-010>013-019-020-200900-
NORTHWEST INDIANA

CITY           SKY/WX    TMP DP  RH WIND       PRES   REMARKS
GARY /AIRPORT/ CLOUDY    33  20  59 CALM      30.29S
KNOX *+        CLOUDY    30  24  77 CALM      30.27R
LA PORTE +     CLOUDY    32  27  80 CALM      30.28R
MICHIGAN CITY+ CLOUDY    32  23  69 CALM      30.28S
MONTICELLO +   CLOUDY    29  28  96 CALM      30.27S
RENSSELAER +   CLOUDY    30  30 100 SW3       30.29R FOG
VALPARAISO     CLOUDY    30  23  75 W6        30.28R WCI  24

$$

LMZ046-743>745-200900-
SOUTHERN LAKE MICHIGAN

STATION/POSITION TIME  TEMP WIND        PRES
                       AIR  DIR/SP/G
                 (UTC) (F)  (DEG/KT/KT) (MB)

$$

INZ004-005-014>016-021>024-200900-
NORTH CENTRAL INDIANA

CITY           SKY/WX    TMP DP  RH WIND       PRES   REMARKS
GOSHEN         CLOUDY    26  23  88 CALM      30.27R
LOGANSPORT +   CLOUDY    30  28  93 W3        30.29R FOG
PERU/GRISSOM   CLOUDY    29  29 100 SW5       30.27R WCI  24
ROCHESTER +    CLOUDY    32  30  93 W3        30.28R
SOUTH BEND     CLOUDY    30  23  75 CALM      30.28R
WARSAW +       CLOUDY    28  27  93 CALM      30.27R

$$

INZ006>009-017-018-025>027-200900-
NORTHEAST INDIANA

CITY           SKY/WX    TMP DP  RH WIND       PRES   REMARKS
ANGOLA *+      CLOUDY    19  18  93 CALM      30.26R
AUBURN +       CLOUDY    23  21  93 CALM      30.28R FOG
FORT WAYNE     CLOUDY    26  22  84 CALM      30.28R
HUNTINGTON +   CLOUDY    27  26  96 CALM      30.27S FOG

$$

INZ028-029-035-036-043>045-051>053-200900-
WEST CENTRAL INDIANA

CITY           SKY/WX    TMP DP  RH WIND       PRES   REMARKS
CRAWFORDSVL +  CLOUDY    27  25  93 CALM      30.28  FOG
GREENCASTLE +  MIX PCPN  30  25  80 CALM      30.28S
LAFAYETTE      CLOUDY    28  27  96 CALM      30.29R FOG
TERRE HAUTE    CLOUDY    30  25  81 SE6       30.29S WCI  24

$$

INZ030>032-037>040-046>048-054>057-064-065-200900-
CENTRAL INDIANA

CITY           SKY/WX    TMP DP  RH WIND       PRES   REMARKS
CP ATTERBURY + CLOUDY    30  27  86 MISG      30.29S
FRANKFORT +    CLOUDY    29  29 100 CALM      30.29R FOG
INDIANAPOLIS   CLOUDY    28  24  85 CALM      30.27R
-EAGLE CREEK   CLOUDY    29  24  82 CALM      30.27S
KOKOMO *+      CLOUDY    28  27  93 CALM      30.28R
MARION +       CLOUDY    28  28  98 CALM      30.28S FOG
MT COMFORT *+  CLOUDY    28  28 100 CALM      30.28S
SHELBYVILLE    CLOUDY    31  25  78 CALM      30.28R
ZIONSVILLE +   CLOUDY    29  26  88 CALM      30.28S FOG

$$

INZ033-034-041-042-049-050-058-059-200900-
EAST CENTRAL INDIANA

CITY           SKY/WX    TMP DP  RH WIND       PRES   REMARKS
MUNCIE         CLOUDY    29  26  89 CALM      30.27R

$$

INZ060-061-067>069-081>083-085>088-200900-
SOUTHWEST INDIANA

CITY           SKY/WX    TMP DP  RH WIND       PRES   REMARKS
EVANSVILLE     CLOUDY    32  26  78 E3        30.29R
HUNTINGBURG *+ PTCLDY    30  21  69 NE5       30.27F WCI  25
WASHINGTON +   CLOUDY    31  24  74 E3        30.28S

$$

INZ062-063-066-070>080-084-089>092-200900-
SOUTH CENTRAL AND SOUTHEAST INDIANA

CITY           SKY/WX    TMP DP  RH WIND       PRES   REMARKS
BLOOMINGTON    LGT SNOW  30  24  78 CALM      30.27S

$$




USA.gov is the U.S. government's official web portal to all federal, state and local government web resources and services.